Location: Unspecified
(0.0000°N, 0.0000°E)
Time: 17:19:41
(UTC+00:00)

deb Delta 126 - Pass Details

Date: 19 February 2026
Orbit: 1458 x 1580 km, 101.9° (Epoch: 8 March)

Event Time Altitude Azimuth Distance (km) Brightness Sun altitude
Rises 03:05:30 0° 25° (NNE) 4,750 ? -45.9°
Reaches altitude 10° 03:08:25 10° 28° (NNE) 3,772 ? -45.2°
Enters shadow 03:13:47 40° 47° (NE) 2,196 ? -43.9°
Exits shadow 03:17:23 60° 112° (ESE) 1,767 ? -43.1°
Drops below altitude 10° 03:25:51 10° 184° (S) 3,755 ? -41.0°
Sets 03:28:44 0° 187° (S) 4,728 ? -40.3°
